Home   Weather   Ostermundigen   Past weeks

Flag for Switzerland Past Weather in Ostermundigen, Bern, Switzerland — Yesterday and Last 2 Weeks

Now
23 °F

Ice fog.


Feels Like: 23 °F
Forecast: 20 / 45 °F
Wind: 2 mph from North

Location: Bern / Belp

Current Time: Dec 7, 2016 at 9:56:19 am

Latest Report: Dec 7, 2016 at 9:20 am


Visibility: 0 mi

Pressure: 30.51 "Hg (28.42 "Hg at 556m altitude)

Humidity: 100%

Dew Point: 23 °F

Location of OstermundigenLocation

Past Weather in Ostermundigen — Graph

°F

Ostermundigen Temperature Yesterday

Maximum temperature yesterday: 43 °F (at 1:50 pm)
Minimum temperature yesterday: 27 °F (at 7:20 am)
Average temperature yesterday: 31 °F

High & Low Weather Summary for the Past Weeks

 TemperatureHumidityPressure
High55 °F (Nov 22, 12:50 pm)100% (Nov 22, 8:50 am)30.57 "Hg (Nov 22, 8:50 am)
Low19 °F (Dec 1, 7:20 am)53% (Dec 1, 2:20 pm)29.77 "Hg (Nov 25, 4:50 am)
Average35 °F90%30.16 "Hg
* Reported Nov 22 8:20 am — Dec 7 8:20 am, Ostermundigen, Weather by CustomWeather, © 2016

Note: Actual official high and low records may vary slightly from our data, if they occured in-between our weather recording intervals... More about our weather records

Advertising

Ostermundigen Weather History for the Previous 24 Hours

Scroll right to see more
 ConditionsComfort  
Time TempWeatherWind HumidityBarometerVisibility
8:20 am
Wed, Dec 7
23 °FIce fog.2 mph100%30.51 "Hg0 mi
7:50 am25 °FIce fog.2 mph93%30.51 "Hg0 mi
7:20 am25 °FIce fog.2 mph93%30.51 "Hg0 mi
6:50 am25 °FIce fog.2 mph93%30.51 "Hg0 mi
6:20 am25 °FIce fog.1 mph100%30.51 "Hg0 mi
5:50 am25 °FIce fog.2 mph100%30.51 "Hg0 mi
5:20 am25 °FIce fog.2 mph100%30.51 "Hg0 mi
4:50 am27 °FIce fog.3 mph93%30.51 "Hg0 mi
4:20 am27 °FIce fog.3 mph100%30.51 "Hg0 mi
3:50 am27 °FIce fog.2 mph100%30.51 "Hg0 mi
3:20 am27 °FIce fog.1 mph100%30.48 "Hg0 mi
2:50 am27 °FIce fog.2 mph100%30.48 "Hg1 mi
2:20 am28 °FSnow showers. Ice fog.3 mph100%30.48 "Hg1 mi
1:50 am28 °FIce fog.5 mph100%30.45 "Hg1 mi
1:20 am27 °FIce fog.5 mph100%30.45 "Hg0 mi
12:50 am27 °FIce fog.1 mph100%30.45 "Hg0 mi
12:20 am27 °FIce fog.1 mph100%30.45 "Hg0 mi
11:50 pm
Tue, Dec 6
27 °FIce fog.1 mph100%30.45 "Hg0 mi
11:20 pm28 °FIce fog.1 mph93%30.45 "Hg0 mi
10:50 pm28 °FIce fog.2 mph100%30.45 "Hg0 mi
10:20 pm28 °FIce fog.3 mph100%30.45 "Hg0 mi
9:50 pm28 °FIce fog.3 mph93%30.45 "Hg0 mi
9:20 pm27 °FIce fog.1 mph100%30.42 "Hg0 mi
8:50 pm27 °FIce fog.2 mph100%30.42 "Hg0 mi
8:20 pm27 °FIce fog.3 mph100%30.45 "Hg0 mi
7:50 pm27 °FIce fog.2 mph100%30.45 "Hg0 mi
6:50 pm28 °FIce fog.2 mph93%30.42 "Hg1 mi
6:20 pm28 °FFog.No wind100%30.42 "Hg4 mi
5:50 pm32 °FPassing clouds.3 mph93%30.42 "Hg4 mi
5:20 pm32 °FPassing clouds.3 mph93%30.42 "Hg5 mi
4:50 pm34 °FClear.5 mph93%30.42 "Hg10 mi
4:20 pm36 °FSunny.7 mph87%30.39 "Hg10 mi
3:50 pm37 °FPassing clouds.6 mph87%30.39 "HgN/A
3:20 pm41 °FSunny.7 mph76%30.39 "Hg10 mi
2:50 pm43 °FSunny.5 mph71%30.39 "Hg10 mi
2:20 pm43 °FPassing clouds.5 mph71%30.39 "HgN/A
1:50 pm43 °FSunny.5 mph71%30.39 "Hg10 mi
1:20 pm41 °FClear.2 mph81%30.39 "Hg6 mi
12:50 pm37 °FClear.2 mph100%30.39 "Hg6 mi
12:20 pm36 °FClear.2 mph100%30.39 "Hg5 mi
11:50 am32 °FIce fog.No wind100%30.42 "Hg2 mi
11:20 am28 °FIce fog.No wind100%30.42 "Hg0 mi
10:50 am28 °FIce fog.1 mph100%30.42 "Hg0 mi
10:20 am28 °FIce fog.2 mph93%30.42 "Hg0 mi
9:50 am27 °FIce fog.1 mph100%30.42 "Hg0 mi
9:20 am27 °FIce fog.1 mph100%30.42 "Hg0 mi
Weather by CustomWeather, © 2016

See weather overviewHow to use our weather pages